[[{"header":{"parameterUnit":"m.s-1","parameterCategory":1,"la1":30.2991,"la2":30.254,"lo1":-89.0895,"lo2":-89.0444,"dy":0.0017,"dx":0.0017,"nx":28,"ny":28,"refTime":"2024-10-13T21:00:00:Z","depth":0,"parameterNumber":2,"parameterNumberName":"U-component_of_WINDS"},"data":[0,0,0,0,0,0,0,0,0,0,0,0,0,0,0,0,0,0,0,0,0,0,0,0,0,0,0,0,0,0,0,0,0,0,0,0,0,0,0,0,0,0,0,0,0,0,0,0,0,0,0,0,0,0,0,0,0,0,4.5126,4.5129,0,4.5335,4.5338,4.534,4.5304,4.5301,4.5297,4.5294,4.5511,4.552,4.5529,0,0,0,0,0,0,0,0,0,0,0,0,0,4.47,4.4708,4.5126,4.5129,4.5131,4.5335,4.5338,4.5341,4.5305,4.5301,4.5296,4.5292,4.5508,4.5519,4.553,0,0,0,0,0,0,0,0,0,0,0,0,0,4.4895,4.4711,4.5126,4.5138,4.5141,4.5334,4.5338,4.5341,4.5306,4.5301,4.5295,4.529,4.5504,4.5518,4.5531,4.5726,0,0,4.5573,4.5579,0,0,0,0,0,0,0,0,4.4884,4.491,4.5134,4.5138,4.5142,4.5288,4.5267,4.547,4.5307,4.5244,4.5294,4.5287,4.5441,4.546,4.5511,4.5736,4.5745,4.5575,4.5583,4.5589,4.5593,0,0,0,0,0,0,0,4.487,4.4901,4.5209,4.5137,4.5142,4.5134,4.5156,4.5305,4.5371,4.5249,4.5247,4.5272,4.5443,4.5498,4.5516,4.5749,4.5574,4.5586,4.5595,4.56,4.6144,4.615,0,0,0,0,0,0,4.4853,4.489,4.5202,4.5215,4.4996,4.5147,4.5171,4.5247,4.5369,4.5382,4.5276,4.5269,4.5477,4.55,4.5524,4.576,4.5589,4.5602,4.561,4.6138,4.6145,4.6152,0,0,0,0,0,0,4.4844,4.4881,4.5194,4.5052,4.5092,4.516,4.5245,4.5254,4.5309,4.539,4.5402,4.5321,4.5474,4.5504,4.5676,4.5767,4.5608,4.562,4.6131,4.614,4.6149,4.6234,0,0,0,0,0,0,4.4831,4.4878,4.4952,4.5054,4.5099,4.5342,4.5251,4.5262,4.5333,4.5326,4.5435,4.5448,4.5472,4.5655,4.5689,4.5783,4.5631,4.6123,4.6135,4.6146,4.6223,4.6245,4.6263,0,0,0,0,0,4.4816,4.4968,4.4956,4.4993,4.5193,4.5347,4.5373,4.5397,4.534,4.5415,4.5467,4.5444,4.5751,4.5673,4.5711,4.581,4.6117,4.6132,4.6145,4.6214,4.624,4.6263,0,0,0,0,0,0,4.4876,4.4982,4.4969,4.5158,4.5244,4.5341,4.5436,4.5424,4.5529,4.5518,4.5544,4.5569,4.5743,4.5794,4.5705,4.6005,4.5926,4.5949,4.5966,4.5992,4.6011,4.5996,4.5643,0,0,0,0,0,4.491,4.5026,4.5112,4.5271,4.5314,4.5368,4.5436,4.5447,4.5538,4.5574,4.5638,4.5728,4.5844,4.5921,4.6033,4.623,4.6254,4.6317,4.6337,4.6353,4.6372,4.6481,4.651,4.6198,4.6198,4.6197,0,0,4.4984,4.5056,4.5127,4.5285,4.5352,4.5472,4.5399,4.5529,4.5618,4.5594,4.576,4.581,4.5912,4.6097,4.6182,4.6145,4.6464,4.6371,4.6383,4.6394,4.6498,4.6528,4.6554,4.6207,4.6206,4.6204,0,0,4.5179,4.5245,4.5384,4.5453,4.5556,4.5591,4.5624,4.5724,4.5756,4.5922,4.5907,4.6014,4.6214,4.6287,4.6351,4.6574,4.6557,4.661,4.6715,4.6821,4.6845,4.6867,4.6947,4.6975,4.6628,4.6629,4.6629,0,4.5258,4.5436,4.5458,4.5589,4.5659,4.5642,4.5783,4.585,4.5985,4.6034,4.599,4.6241,4.6308,4.651,4.6565,4.6617,4.6656,4.6598,4.684,4.6862,4.6883,4.6959,4.6989,4.6634,4.6634,4.6633,4.6633,0,4.5528,4.5653,4.5753,4.5882,4.5964,4.61,4.6143,4.6223,4.6227,4.6266,4.6436,4.6516,4.6644,4.6693,4.6699,4.6897,4.687,4.6833,4.6754,4.6918,4.699,4.702,4.6643,4.6641,4.6639,4.6637,0,0,4.5767,4.5906,4.5943,4.6001,4.6113,4.6211,4.6346,4.647,4.6538,4.6632,4.6747,4.6917,4.6883,4.6955,4.6969,4.7061,4.7234,4.7013,4.7016,4.7051,4.7457,4.7485,4.7518,4.7223,4.7228,4.7233,4.7449,0,4.5973,4.6211,4.6234,4.6448,4.6564,4.6549,4.6667,4.6749,4.679,4.6895,4.6941,4.7061,4.7006,4.705,4.7141,4.7193,4.7315,4.7178,4.7331,4.7336,4.7306,4.7556,4.7586,4.7786,4.7477,4.7482,4.7486,0,4.6245,4.6346,4.6571,4.6667,4.6716,4.6822,4.6938,4.7038,4.7131,4.7154,4.7235,4.7236,4.7377,4.7293,4.7488,4.7394,4.7458,4.7493,4.7501,4.7517,4.7421,4.7579,4.785,4.7881,4.753,4.7527,4.7524,0,4.6397,4.6589,4.6748,4.6799,4.6915,4.699,4.7042,4.713,4.7203,4.7304,4.7352,4.7469,4.7533,4.7624,4.7657,4.7593,4.7851,4.7769,4.7875,4.7875,4.7931,4.7927,4.8217,4.7972,4.7971,4.7971,4.797,0,4.6625,4.6764,4.6818,4.6916,4.7071,4.7097,4.725,4.7298,4.7377,4.7485,4.7479,4.7581,4.7619,4.7727,4.7754,4.7912,4.7941,4.7965,4.797,4.7965,4.7962,4.8008,4.7995,4.7979,4.7977,4.7975,4.7974,0,4.6821,4.6863,4.7036,4.7131,4.7158,4.7269,4.7351,4.7446,4.7485,4.7622,4.7656,4.7718,4.7845,4.7887,4.8042,4.806,4.8244,4.8237,4.8212,4.8213,4.8317,4.8307,4.8646,4.8692,4.8417,4.8419,4.8421,0,4.6964,4.707,4.7176,4.7248,4.7302,4.7418,4.7492,4.7521,4.7599,4.7713,4.7795,4.7921,4.8023,4.8228,4.8287,4.8406,4.8402,4.8513,4.842,4.8412,4.8404,4.8398,4.8409,4.8531,4.8533,4.8536,4.8538,0,4.7213,4.7228,4.7335,4.7449,4.7537,4.7629,4.7718,4.7777,4.7819,4.7907,4.8037,4.8116,4.8273,4.8399,4.8519,4.8574,4.8564,4.8566,4.8597,4.8593,4.8574,4.8586,4.826,4.8559,4.8556,4.8555,4.8554,4.8553,4.7387,4.7481,4.757,4.7689,4.7758,4.7841,4.7935,4.7986,4.8094,4.8223,4.8234,4.8374,4.8466,4.8626,4.8687,4.8798,4.8766,4.8811,4.8822,4.8833,4.8841,4.8556,4.882,4.8819,4.8819,4.8818,4.8818,0,4.7636,4.7693,4.7802,4.7925,4.8019,4.8,4.8097,4.8177,4.83,4.8385,4.8485,4.8635,4.8756,4.8825,4.8947,4.9022,4.9021,4.9053,4.9048,4.9061,4.8862,4.8823,4.9053,4.9053,4.9053,4.9053,4.9052,4.9052,4.7777,4.7934,4.796,4.8152,4.8208,4.8344,4.8401,4.8478,4.8546,4.8712,4.8813,4.8856,4.8935,4.9063,4.9174,4.9191,4.9237,4.9273,4.9287,4.9099,4.9075,4.9052,4.9016,4.9282,4.9283,4.9477,4.9479,4.948]},{"header":{"parameterUnit":"m.s-1","parameterCategory":1,"la1":30.2991,"la2":30.254,"lo1":-89.0895,"lo2":-89.0444,"dy":0.0017,"dx":0.0017,"nx":28,"ny":28,"refTime":"2024-10-13T21:00:00:Z","depth":0,"parameterNumber":3,"parameterNumberName":"V-component_of_WINDS"},"data":[0,0,0,0,0,0,0,0,0,0,0,0,0,0,0,0,0,0,0,0,0,0,0,0,0,0,0,0,0,0,0,0,0,0,0,0,0,0,0,0,0,0,0,0,0,0,0,0,0,0,0,0,0,0,0,0,0,0,-0.5526,-0.5527,0,-0.5595,-0.5596,-0.5596,-0.5635,-0.5636,-0.5636,-0.5636,-0.5707,-0.5708,-0.571,0,0,0,0,0,0,0,0,0,0,0,0,0,-0.543,-0.5431,-0.5526,-0.5527,-0.5528,-0.5595,-0.5596,-0.5597,-0.5635,-0.5636,-0.5636,-0.5636,-0.5706,-0.5708,-0.571,0,0,0,0,0,0,0,0,0,0,0,0,0,-0.5482,-0.5432,-0.5526,-0.5555,-0.5559,-0.5594,-0.5596,-0.5597,-0.5635,-0.5636,-0.5636,-0.5636,-0.5705,-0.5708,-0.5711,-0.5723,0,0,-0.5719,-0.572,0,0,0,0,0,0,0,0,-0.5479,-0.5486,-0.555,-0.5553,-0.5557,-0.5607,-0.5588,-0.5639,-0.5635,-0.5606,-0.5636,-0.5636,-0.5673,-0.5679,-0.5691,-0.5726,-0.5729,-0.5719,-0.572,-0.5722,-0.5722,0,0,0,0,0,0,0,-0.5476,-0.5483,-0.5553,-0.5551,-0.5555,-0.5565,-0.5573,-0.5598,-0.5638,-0.5609,-0.5612,-0.5619,-0.5675,-0.5688,-0.5693,-0.573,-0.5719,-0.5721,-0.5723,-0.5724,-0.578,-0.578,0,0,0,0,0,0,-0.5467,-0.548,-0.5551,-0.5555,-0.5518,-0.5567,-0.5576,-0.5591,-0.5638,-0.5645,-0.5619,-0.5621,-0.5684,-0.569,-0.5696,-0.5714,-0.5722,-0.5724,-0.5726,-0.578,-0.578,-0.578,0,0,0,0,0,0,-0.5465,-0.5473,-0.5548,-0.5519,-0.5529,-0.5568,-0.5585,-0.5592,-0.5605,-0.5645,-0.5653,-0.5625,-0.5684,-0.5692,-0.5716,-0.5717,-0.5725,-0.5728,-0.578,-0.578,-0.578,-0.5749,0,0,0,0,0,0,-0.5462,-0.5472,-0.5477,-0.5518,-0.553,-0.5567,-0.5585,-0.5593,-0.5609,-0.5612,-0.5653,-0.566,-0.5685,-0.5712,-0.5719,-0.572,-0.573,-0.578,-0.578,-0.578,-0.575,-0.5748,-0.5746,0,0,0,0,0,-0.5459,-0.5465,-0.5477,-0.5485,-0.5537,-0.5567,-0.5574,-0.5602,-0.5609,-0.5615,-0.5641,-0.5659,-0.5716,-0.5714,-0.5722,-0.5724,-0.578,-0.578,-0.578,-0.5751,-0.5749,-0.5746,0,0,0,0,0,0,-0.5423,-0.5471,-0.5485,-0.5505,-0.5532,-0.5573,-0.5581,-0.5598,-0.5624,-0.5625,-0.566,-0.5669,-0.569,-0.571,-0.5707,-0.574,-0.575,-0.5751,-0.5725,-0.5723,-0.5721,-0.5716,-0.5732,0,0,0,0,0,-0.5417,-0.5437,-0.5479,-0.5493,-0.5506,-0.5541,-0.5555,-0.5575,-0.5604,-0.5615,-0.5643,-0.5671,-0.5695,-0.571,-0.5735,-0.5754,-0.5764,-0.576,-0.5757,-0.5756,-0.5756,-0.5769,-0.5768,-0.5779,-0.5779,-0.5779,0,0,-0.5406,-0.5435,-0.5446,-0.5486,-0.5509,-0.553,-0.555,-0.5571,-0.5586,-0.5618,-0.5643,-0.5664,-0.5698,-0.5719,-0.573,-0.5737,-0.5755,-0.5755,-0.5753,-0.5755,-0.5768,-0.5767,-0.5766,-0.5779,-0.5779,-0.5779,0,0,-0.5396,-0.542,-0.5434,-0.5457,-0.5492,-0.5515,-0.5519,-0.5559,-0.5574,-0.5599,-0.5624,-0.5644,-0.5684,-0.5708,-0.5724,-0.5725,-0.5742,-0.5732,-0.572,-0.5732,-0.5731,-0.5731,-0.5731,-0.5731,-0.5732,-0.5732,-0.5732,0,-0.5378,-0.5409,-0.544,-0.5459,-0.5477,-0.5507,-0.5522,-0.5543,-0.5584,-0.5596,-0.5602,-0.5655,-0.5679,-0.5707,-0.5707,-0.572,-0.5726,-0.5727,-0.5729,-0.5728,-0.5728,-0.5729,-0.5729,-0.5731,-0.5731,-0.5731,-0.5731,0,-0.5385,-0.5407,-0.5415,-0.5453,-0.5472,-0.5489,-0.5523,-0.5538,-0.5556,-0.558,-0.5605,-0.5636,-0.5668,-0.5676,-0.5694,-0.5707,-0.571,-0.5722,-0.5733,-0.5725,-0.5727,-0.5727,-0.5729,-0.5729,-0.573,-0.573,0,0,-0.5354,-0.541,-0.5412,-0.5431,-0.5472,-0.5489,-0.5508,-0.5539,-0.5552,-0.5579,-0.5597,-0.5631,-0.5643,-0.5662,-0.5684,-0.5694,-0.5693,-0.5705,-0.5707,-0.5702,-0.571,-0.57,-0.57,-0.5705,-0.5705,-0.5705,-0.5707,0,-0.535,-0.5385,-0.5414,-0.5439,-0.5459,-0.5489,-0.5506,-0.5533,-0.5556,-0.5577,-0.5602,-0.5626,-0.564,-0.5652,-0.5663,-0.569,-0.5695,-0.5691,-0.5722,-0.5723,-0.5712,-0.57,-0.569,-0.569,-0.5708,-0.5708,-0.5708,0,-0.5349,-0.5376,-0.5403,-0.5443,-0.5452,-0.5467,-0.5498,-0.5518,-0.555,-0.5566,-0.5588,-0.561,-0.5633,-0.5642,-0.5674,-0.567,-0.5685,-0.57,-0.5701,-0.5705,-0.5714,-0.5704,-0.5691,-0.5691,-0.5709,-0.5709,-0.5709,0,-0.5324,-0.5367,-0.5388,-0.5403,-0.545,-0.546,-0.548,-0.5512,-0.5529,-0.5557,-0.5568,-0.5598,-0.5614,-0.5637,-0.5667,-0.5671,-0.5696,-0.5708,-0.571,-0.571,-0.5714,-0.5713,-0.5703,-0.5723,-0.5723,-0.5723,-0.5723,0,-0.5316,-0.5332,-0.5378,-0.5391,-0.5409,-0.5443,-0.546,-0.5483,-0.5512,-0.553,-0.5558,-0.5575,-0.5614,-0.5636,-0.566,-0.5683,-0.569,-0.5704,-0.571,-0.5702,-0.57,-0.5711,-0.5712,-0.5723,-0.5723,-0.5723,-0.5723,0,-0.5291,-0.5322,-0.5348,-0.539,-0.5401,-0.5413,-0.545,-0.5464,-0.5489,-0.5513,-0.552,-0.5558,-0.5586,-0.5619,-0.5657,-0.5673,-0.5694,-0.5703,-0.5683,-0.5687,-0.5687,-0.5687,-0.5684,-0.5685,-0.5705,-0.5704,-0.5704,0,-0.5284,-0.5296,-0.534,-0.5355,-0.5374,-0.5397,-0.5415,-0.5449,-0.5466,-0.5504,-0.5514,-0.5544,-0.557,-0.5613,-0.5644,-0.5674,-0.5684,-0.5681,-0.5689,-0.568,-0.5685,-0.5683,-0.5685,-0.5679,-0.5678,-0.5678,-0.5678,0,-0.5268,-0.5283,-0.5307,-0.5337,-0.5358,-0.5383,-0.541,-0.542,-0.546,-0.5478,-0.5507,-0.5527,-0.5566,-0.5596,-0.563,-0.5651,-0.5671,-0.5675,-0.5678,-0.5669,-0.5657,-0.5664,-0.5677,-0.5675,-0.5675,-0.5676,-0.5676,-0.5676,-0.5251,-0.5264,-0.5297,-0.5324,-0.5348,-0.5372,-0.5388,-0.5415,-0.5439,-0.5474,-0.5493,-0.5521,-0.5554,-0.5602,-0.5623,-0.5646,-0.5653,-0.5656,-0.5657,-0.5657,-0.5654,-0.5653,-0.5652,-0.5652,-0.5652,-0.5653,-0.5653,0,-0.5237,-0.526,-0.5284,-0.5321,-0.5342,-0.5359,-0.539,-0.5407,-0.5431,-0.546,-0.5485,-0.5519,-0.5548,-0.5582,-0.5614,-0.5626,-0.5636,-0.5633,-0.5632,-0.5637,-0.5646,-0.5641,-0.5624,-0.5624,-0.5624,-0.5624,-0.5624,-0.5624,-0.5232,-0.5255,-0.5274,-0.531,-0.5333,-0.5361,-0.5377,-0.54,-0.5423,-0.5459,-0.5484,-0.5506,-0.5538,-0.5572,-0.56,-0.5609,-0.562,-0.5614,-0.5626,-0.5634,-0.5636,-0.5639,-0.5634,-0.5616,-0.5616,-0.5615,-0.5615,-0.5615]}]]